CMP209 MPTO-KMIA

Flight info

Callsign CMP209
Flight time N/A
Altitude 37000
Route EGETA3A EGETA DCT DAGAS/N0457F360 UM542 SIA UM347 EPSIM DCT ZEUSS VIICE2
Aircraft B738/M-SDE2E3FGHIRWXY/LB1

Departure

Time 2026-04-29 22:56
Airport Tocumen International Airport (MPTO)

Arrival

Time N/A
Airport Miami International Airport (KMIA)
Time Latitude Longitude Altitude Speed Heading
2026-04-29 22:34 9.06017 -79.39110 29 ft 0 kts 324°
2026-04-29 22:45 9.06005 -79.39101 29 ft 4 kts 322°
2026-04-29 22:46 9.05985 -79.39085 29 ft 4 kts 320°
2026-04-29 22:46 9.05966 -79.39067 29 ft 3 kts 309°
2026-04-29 22:46 9.05958 -79.39054 29 ft 2 kts 282°
2026-04-29 22:46 9.05958 -79.39042 29 ft 2 kts 239°
2026-04-29 22:47 9.05965 -79.39033 29 ft 2 kts 219°
2026-04-29 22:47 9.05974 -79.39027 29 ft 2 kts 214°
2026-04-29 22:47 9.05979 -79.39023 29 ft 0 kts 212°
2026-04-29 22:49 9.05946 -79.39044 29 ft 12 kts 212°
2026-04-29 22:50 9.05875 -79.39084 29 ft 12 kts 209°
2026-04-29 22:50 9.05806 -79.39123 29 ft 11 kts 208°
2026-04-29 22:50 9.05735 -79.39148 29 ft 11 kts 169°
2026-04-29 22:50 9.05689 -79.39091 29 ft 11 kts 119°
2026-04-29 22:51 9.05653 -79.39028 29 ft 10 kts 120°
2026-04-29 22:51 9.05608 -79.38977 29 ft 10 kts 161°
2026-04-29 22:51 9.05487 -79.39030 29 ft 9 kts 210°
2026-04-29 22:52 9.05431 -79.39063 29 ft 9 kts 210°
2026-04-29 22:52 9.05376 -79.39094 29 ft 9 kts 209°
2026-04-29 22:52 9.05322 -79.39125 29 ft 9 kts 210°
2026-04-29 22:52 9.05270 -79.39155 29 ft 8 kts 209°
2026-04-29 22:53 9.05220 -79.39183 29 ft 8 kts 209°
2026-04-29 22:53 9.05157 -79.39219 29 ft 12 kts 209°
2026-04-29 22:53 9.05087 -79.39259 29 ft 11 kts 209°
2026-04-29 22:53 9.05020 -79.39297 29 ft 11 kts 209°
2026-04-29 22:54 9.04955 -79.39335 29 ft 11 kts 209°
2026-04-29 22:54 9.04892 -79.39371 29 ft 10 kts 209°
2026-04-29 22:54 9.04830 -79.39360 29 ft 10 kts 127°
2026-04-29 22:54 9.04795 -79.39301 30 ft 10 kts 118°
2026-04-29 22:55 9.04780 -79.39268 30 ft 5 kts 105°
2026-04-29 22:55 9.04798 -79.39243 30 ft 5 kts 37°
2026-04-29 22:55 9.04825 -79.39226 30 ft 6 kts 29°
2026-04-29 22:55 9.05005 -79.39123 31 ft 63 kts 29°
2026-04-29 22:56 9.05588 -79.38792 30 ft 127 kts 29°
2026-04-29 22:56 9.06499 -79.38266 197 ft 163 kts 30°
2026-04-29 22:56 9.07472 -79.37655 894 ft 163 kts 32°
2026-04-29 22:56 9.08338 -79.37033 1840 ft 153 kts 32°
2026-04-29 22:57 9.09230 -79.36380 2312 ft 171 kts 34°
2026-04-29 22:57 9.10265 -79.35615 2598 ft 196 kts 35°
2026-04-29 22:57 9.11423 -79.34751 2780 ft 218 kts 34°
2026-04-29 22:57 9.12699 -79.33797 2992 ft 240 kts 35°
2026-04-29 22:58 9.13612 -79.33111 3170 ft 254 kts 34°
2026-04-29 22:58 9.15037 -79.32037 4016 ft 251 kts 36°
2026-04-29 22:58 9.16439 -79.30974 4829 ft 255 kts 37°
2026-04-29 22:58 9.17887 -79.29871 5468 ft 263 kts 37°
2026-04-29 22:59 9.19351 -79.28753 6260 ft 266 kts 36°
2026-04-29 22:59 9.21359 -79.27231 7021 ft 277 kts 36°
2026-04-29 22:59 9.22405 -79.26437 7477 ft 280 kts 36°
2026-04-29 22:59 9.23966 -79.25250 8191 ft 282 kts 37°
2026-04-29 23:00 9.25551 -79.24043 8834 ft 287 kts 37°
2026-04-29 23:00 9.27155 -79.22820 9584 ft 289 kts 37°
2026-04-29 23:00 9.28782 -79.21579 10150 ft 296 kts 37°
2026-04-29 23:00 9.30450 -79.20307 10424 ft 315 kts 37°
2026-04-29 23:01 9.32259 -79.18927 10574 ft 336 kts 37°
2026-04-29 23:01 9.34163 -79.17475 10881 ft 349 kts 37°
2026-04-29 23:01 9.36122 -79.15980 11415 ft 354 kts 37°
2026-04-29 23:01 9.38094 -79.14476 11942 ft 357 kts 37°
2026-04-29 23:02 9.40092 -79.12951 12040 ft 360 kts 38°
2026-04-29 23:02 9.42093 -79.11424 12050 ft 360 kts 37°
2026-04-29 23:02 9.44106 -79.09888 12290 ft 365 kts 37°
2026-04-29 23:02 9.46184 -79.08403 12916 ft 367 kts 28°
2026-04-29 23:03 9.48628 -79.07642 13549 ft 371 kts
2026-04-29 23:03 9.51221 -79.07559 14121 ft 375 kts 359°
2026-04-29 23:03 9.53844 -79.07624 14631 ft 380 kts 358°
2026-04-29 23:03 9.56489 -79.07727 15253 ft 381 kts 358°
2026-04-29 23:04 9.59145 -79.07836 15820 ft 384 kts 358°
2026-04-29 23:04 9.61833 -79.07938 16352 ft 388 kts 358°
2026-04-29 23:04 9.64503 -79.08029 16979 ft 389 kts 358°
2026-04-29 23:04 9.67235 -79.08114 17439 ft 395 kts 358°
2026-04-29 23:05 9.69989 -79.08194 18027 ft 396 kts 358°
2026-04-29 23:05 9.72755 -79.08271 18476 ft 400 kts 358°
2026-04-29 23:05 9.75556 -79.08346 18893 ft 404 kts 358°
2026-04-29 23:05 9.78363 -79.08419 19427 ft 404 kts 358°
2026-04-29 23:06 9.81194 -79.08495 19803 ft 410 kts 357°
2026-04-29 23:06 9.84053 -79.08568 20256 ft 412 kts 356°
2026-04-29 23:06 9.86928 -79.08643 20728 ft 413 kts 356°
2026-04-29 23:06 9.89813 -79.08719 21168 ft 416 kts 357°
2026-04-29 23:07 9.92716 -79.08796 21590 ft 419 kts 356°
2026-04-29 23:07 9.95634 -79.08873 21998 ft 422 kts 357°
2026-04-29 23:07 9.98579 -79.08950 22418 ft 424 kts 356°
2026-04-29 23:07 10.01539 -79.09028 22813 ft 427 kts 356°
2026-04-29 23:08 10.04485 -79.09106 23180 ft 430 kts 356°
2026-04-29 23:08 10.07484 -79.09185 23514 ft 433 kts 356°
2026-04-29 23:08 10.10510 -79.09264 23815 ft 436 kts 356°
2026-04-29 23:08 10.13553 -79.09344 24122 ft 439 kts 356°
2026-04-29 23:09 10.16614 -79.09425 24429 ft 441 kts 356°
2026-04-29 23:09 10.19692 -79.09506 24733 ft 444 kts 356°
2026-04-29 23:09 10.22789 -79.09587 25025 ft 447 kts 356°
2026-04-29 23:09 10.25906 -79.09669 25322 ft 449 kts 356°
2026-04-29 23:10 10.29041 -79.09751 25603 ft 452 kts 356°
2026-04-29 23:10 10.32196 -79.09834 25880 ft 455 kts 356°
2026-04-29 23:10 10.35369 -79.09918 26161 ft 457 kts 356°
2026-04-29 23:10 10.38560 -79.10002 26441 ft 460 kts 356°
2026-04-29 23:11 10.41768 -79.10086 26715 ft 462 kts 356°
2026-04-29 23:11 10.45001 -79.10171 26991 ft 465 kts 356°
2026-04-29 23:11 10.48200 -79.10256 27257 ft 467 kts 356°
2026-04-29 23:11 10.51460 -79.10342 27516 ft 470 kts 356°
2026-04-29 23:12 10.54744 -79.10428 27778 ft 472 kts 356°
2026-04-29 23:12 10.58039 -79.10515 28033 ft 475 kts 356°
2026-04-29 23:12 10.61350 -79.10602 28282 ft 477 kts 355°
2026-04-29 23:12 10.64677 -79.10690 28530 ft 479 kts 355°
2026-04-29 23:13 10.68027 -79.10778 28773 ft 482 kts 355°
2026-04-29 23:13 10.71386 -79.10867 29018 ft 484 kts 355°
2026-04-29 23:13 10.74759 -79.10956 29262 ft 486 kts 355°
2026-04-29 23:13 10.78143 -79.11045 29511 ft 487 kts 355°
2026-04-29 23:14 10.81540 -79.11135 29751 ft 489 kts 355°
2026-04-29 23:14 10.84953 -79.11225 29956 ft 492 kts 355°
2026-04-29 23:14 10.88375 -79.11315 30131 ft 494 kts 355°
2026-04-29 23:14 10.91820 -79.11406 30302 ft 496 kts 355°
2026-04-29 23:15 10.95234 -79.11496 30483 ft 498 kts 355°
2026-04-29 23:15 10.98708 -79.11588 30653 ft 500 kts 355°
2026-04-29 23:15 11.02199 -79.11680 30875 ft 501 kts 355°
2026-04-29 23:15 11.05684 -79.11772 31138 ft 501 kts 355°
2026-04-29 23:16 11.09163 -79.11863 31392 ft 501 kts 355°
2026-04-29 23:16 11.12653 -79.11955 31609 ft 502 kts 355°
2026-04-29 23:16 11.16154 -79.12048 31810 ft 504 kts 355°
2026-04-29 23:16 11.19663 -79.12141 32056 ft 504 kts 355°
2026-04-29 23:17 11.23172 -79.12234 32331 ft 504 kts 355°
2026-04-29 23:17 11.26680 -79.12327 32594 ft 504 kts 355°
2026-04-29 23:17 11.30194 -79.12420 32824 ft 506 kts 355°
2026-04-29 23:17 11.33715 -79.12513 33058 ft 506 kts 355°
2026-04-29 23:18 11.37239 -79.12606 33313 ft 507 kts 355°
2026-04-29 23:18 11.40766 -79.12700 33581 ft 507 kts 355°
2026-04-29 23:18 11.44298 -79.12793 33826 ft 508 kts 355°
2026-04-29 23:18 11.47801 -79.12886 34061 ft 508 kts 355°
2026-04-29 23:19 11.51333 -79.12979 34339 ft 507 kts 355°
2026-04-29 23:19 11.54850 -79.13072 34657 ft 505 kts 355°
2026-04-29 23:19 11.58346 -79.13165 34952 ft 503 kts 355°
2026-04-29 23:19 11.61850 -79.13254 35213 ft 502 kts 356°
2026-04-29 23:20 11.65359 -79.13083 35447 ft 506 kts
2026-04-29 23:20 11.68838 -79.12519 35714 ft 506 kts
2026-04-29 23:20 11.72256 -79.11890 36002 ft 504 kts
2026-04-29 23:20 11.75699 -79.11235 36306 ft 502 kts
2026-04-29 23:21 11.79129 -79.10585 36593 ft 500 kts
2026-04-29 23:21 11.82550 -79.09950 36838 ft 500 kts
2026-04-29 23:21 11.89436 -79.08712 36849 ft 503 kts
2026-04-29 23:22 11.96312 -79.07500 36840 ft 499 kts
2026-04-29 23:22 12.03128 -79.06302 36844 ft 495 kts
2026-04-29 23:23 12.09907 -79.05108 36848 ft 493 kts
2026-04-29 23:23 12.16666 -79.03916 36855 ft 492 kts
2026-04-29 23:24 12.23431 -79.02722 36860 ft 493 kts
2026-04-29 23:24 12.30156 -79.01534 36860 ft 494 kts
2026-04-29 23:25 12.36950 -79.00333 36858 ft 496 kts
2026-04-29 23:25 12.43763 -78.99128 36860 ft 498 kts
2026-04-29 23:26 12.50617 -78.97915 36866 ft 500 kts
2026-04-29 23:26 12.57488 -78.96698 36867 ft 502 kts
2026-04-29 23:27 12.64375 -78.95478 36859 ft 503 kts
2026-04-29 23:27 12.71271 -78.94255 36864 ft 503 kts
2026-04-29 23:28 12.78164 -78.93033 36865 ft 502 kts
2026-04-29 23:28 12.85047 -78.91811 36865 ft 501 kts